weather.gov     
National Weather Service

Terminal Aerodrome Forecast
NWS Homepage
This page is being discontinued on March 12, 2014.
The same data is available at this site. Please update your bookmarks.
Thank you, and we apologize for the inconvenience.
Please send an email to SR-SRH.Webmaster@noaa.gov with any concerns.


Current Version
Previous Version:    01  02  03  04  05  06  07  08  09  10  11  12  13  14  
[Printable]
102
FTUS41 KBTV 211100
TAFBTV
TAF
KBTV 211127Z 2112/2212 16005KT P6SM -SHRA SCT025 BKN040
      TEMPO 2113/2117 3SM SHRA OVC028
     FM211700 17007KT P6SM -SHRA OVC040
     FM212000 14006KT P6SM SCT028 OVC045=


U.S. Dept. of Commerce
NOAA National Weather Service
1325 East West Highway
Silver Spring, MD 20910
E-mail: w-nws.webmaster@noaa.gov
Page last modified: May 16, 2007
NATIONAL WEATHER SERVICE: for Safety, for Work, for Fun - FOR LIFE